Regional Weather Roundup
Issued by NWS

Home | Current Version | Previous Version | Graphics & Text | Print | Product List | Glossary On
Versions: 1 2 3 4 5 6 7 8 9 10 11 12 13 14 15 16 17 18 19 20 21 22 23 24 25 26 27 28 29 30 31 32 33 34 35 36 37 38 39 40 41 42 43 44 45 46 47 48 49 50
000
ASUS43 KIND 271409
RWRIN

WEATHER ROUNDUP FOR INDIANA
NATIONAL WEATHER SERVICE INDIANAPOLIS IN
1000 AM EDT THU JUL 27 2017

NOTE: "FAIR" INDICATES FEW OR NO CLOUDS BELOW 12,000 FEET WITH NO
SIGNIFICANT WEATHER AND/OR OBSTRUCTIONS TO VISIBILITY.

* - STATION DOES NOT REPORT WEATHER SUCH AS PRECIPITATION OR FOG.

+ - STATION NOT QUALITY CONTROLLED BY THE NATIONAL WEATHER SERVICE.
    USE DATA WITH CAUTION...ESPECIALLY DEWPOINT AND RELATIVE
    HUMIDITY OBSERVATIONS.

INZ001>003-010>013-019-020-271500-
NORTHWEST INDIANA

CITY           SKY/WX    TMP DP  RH WIND       PRES   REMARKS
GARY /AIRPORT/ CLOUDY    77  72  83 NW5       29.93R FOG
KNOX *+        CLOUDY    72  72 100 SW3       29.93S VSB 1
LA PORTE +     CLOUDY    74  71  91 CALM      29.94S
MICHIGAN CITY+ CLOUDY    75  72  88 N5        29.93S
MONTICELLO +   CLOUDY    73  72  95 W3        29.94S
RENSSELAER +   CLOUDY    73  70  88 SW6       29.94S
VALPARAISO     CLOUDY    75  73  93 S6        29.94R FOG

$$

LMZ046-743>745-271500-
SOUTHERN LAKE MICHIGAN

STATION/POSITION TIME  TEMP    WIND        PRES    WAVE
                       AIR SEA DIR/SP/G            HT
                 (UTC) (F)     (DEG/KT/KT) (MB)    (FT)
BURNS HARBOR     1340   74      40/  4/  6 1013.9S
MICHIGAN CITY    1340   75      CALM  /  1   N/A
5NW MICH CITY    1400   75 76   80/  2/  2   N/A     0

$$

INZ004-005-014>016-021>024-271500-
NORTH CENTRAL INDIANA

CITY           SKY/WX    TMP DP  RH WIND       PRES   REMARKS
ELKHART        PTSUNNY   73  68  83 CALM      29.94R
GOSHEN         CLOUDY    74  68  81 W6        29.94R
LOGANSPORT +   CLOUDY    73  72  94 W6        29.95F
PERU/GRISSOM   CLOUDY    73  73 100 W5        29.94S
ROCHESTER +    PTSUNNY   73  73 100 SW7       29.94F
SOUTH BEND     CLOUDY    75  71  87 NW3       29.93S
WARSAW +       CLOUDY    73  72  94 SW3       29.94S

$$

INZ006>009-017-018-025>027-271500-
NORTHEAST INDIANA

CITY           SKY/WX    TMP DP  RH WIND       PRES   REMARKS
AUBURN +       CLOUDY    73  68  83 CALM      29.94S
FORT WAYNE     CLOUDY    73  70  90 SW8       29.95R FOG
HUNTINGTON +   CLOUDY    72  70  96 W6        29.95R
KENDALLVILLE + CLOUDY    74  70  88 CALM      29.94S

$$

INZ028-029-035-036-043>045-051>053-271500-
WEST CENTRAL INDIANA

CITY           SKY/WX    TMP DP  RH WIND       PRES   REMARKS
GREENCASTLE +  CLOUDY    73  70  88 W5        29.96F
LAFAYETTE      CLOUDY    73  72  96 W3        29.94S
TERRE HAUTE    CLOUDY    75  71  87 SW5       29.95F

$$

INZ030>032-037>040-046>048-054>057-064-065-271500-
CENTRAL INDIANA

CITY           SKY/WX    TMP DP  RH WIND       PRES   REMARKS
ANDERSON       LGT RAIN  73  72  94 MISG      29.96F
CP ATTERBURY + CLOUDY    75  70  83 CALM      29.96F
COLUMBUS       CLOUDY    75  72  88 W5        29.97S
FRANKFORT +    CLOUDY    75  73  94 W3        29.97S
GREENWOOD *+   MOSUNNY  N/A N/A N/A CALM      29.97F
INDIANAPOLIS   CLOUDY    75  72  90 SW7       29.95F
-EAGLE CREEK   LGT RAIN  74  71  91 SW6       29.95S FOG
KOKOMO +       CLOUDY    72  71  97 W5        29.96S
MARION +       CLOUDY    72  72 100 CALM      29.96S FOG
MT COMFORT *+  CLOUDY    73  72  94 NW5       29.96F
SHELBYVILLE    LGT RAIN  76  72  87 VRB7      29.96S
ZIONSVILLE +   DRIZZLE   72  71  98 W5        29.96F

$$

INZ033-034-041-042-049-050-058-059-271500-
EAST CENTRAL INDIANA

CITY           SKY/WX    TMP DP  RH WIND       PRES   REMARKS
MUNCIE         LGT RAIN  76  72  87 SW5       29.95S FOG
RICHMOND +     LGT RAIN  72  70  94 W3        29.98F

$$

INZ060-061-067>069-081>083-085>088-271500-
SOUTHWEST INDIANA

CITY           SKY/WX    TMP DP  RH WIND       PRES   REMARKS
EVANSVILLE     CLOUDY    76  72  87 N5        29.98R

$$

INZ062-063-066-070>080-084-089>092-271500-
SOUTH CENTRAL AND SOUTHEAST INDIANA

CITY           SKY/WX    TMP DP  RH WIND       PRES   REMARKS
BEDFORD +      CLOUDY    75  72  88 CALM      29.97S
BLOOMINGTON    LGT RAIN  74  70  87 W6        29.97S
MADISON *+     PTSUNNY   77  72  83 CALM      30.00S
NORTH VERNON + CLOUDY    73  72  94 CALM      29.98S
SEYMOUR +      CLOUDY    79  73  83 CALM      29.97S

$$




USA.gov is the U.S. government's official web portal to all federal, state and local government web resources and services.